Time,TemperatureF,DewpointF,PressureIn,WindDirection,WindDirectionDegrees,WindSpeedMPH,WindSpeedGustMPH,Humidity,HourlyPrecipIn,Conditions,Clouds,dailyrainin,SoftwareType,DateUTC
2013-05-17 00:00:00,55.0,41.0,29.51,South,174,0.0,0.0,59,0.00,,SKC,0.00,VWS V12.07,2013-05-17 06:00:00,
2013-05-17 00:30:00,54.4,42.1,29.54,South,174,0.0,0.0,63,0.00,,SKC,0.00,VWS V12.07,2013-05-17 06:30:00,
2013-05-17 01:00:00,53.3,41.8,29.53,South,174,0.0,0.0,65,0.00,,SKC,0.00,VWS V12.07,2013-05-17 07:00:00,
2013-05-17 01:30:00,52.6,41.2,29.51,WSW,257,0.0,0.0,65,0.00,,SKC,0.00,VWS V12.07,2013-05-17 07:30:00,
2013-05-17 02:00:00,53.5,40.8,29.51,West,269,0.0,0.0,62,0.00,,SKC,0.00,VWS V12.07,2013-05-17 08:00:00,
2013-05-17 02:30:00,53.1,39.6,29.51,SW,220,0.0,0.0,60,0.00,,SKC,0.00,VWS V12.07,2013-05-17 08:30:00,
2013-05-17 03:00:00,52.2,38.8,29.52,SW,220,0.0,0.0,60,0.00,,SKC,0.00,VWS V12.07,2013-05-17 09:00:00,
2013-05-17 03:30:00,52.0,38.6,29.51,SW,220,0.0,0.0,60,0.00,,SKC,0.00,VWS V12.07,2013-05-17 09:30:00,
2013-05-17 04:00:00,51.6,39.8,29.50,SW,220,0.0,0.0,64,0.00,,SKC,0.00,VWS V12.07,2013-05-17 10:00:00,
2013-05-17 04:30:00,51.7,40.3,29.52,SW,220,0.0,0.0,65,0.00,,SKC,0.00,VWS V12.07,2013-05-17 10:30:00,
2013-05-17 05:00:00,51.7,39.9,29.52,SW,220,0.0,0.0,64,0.00,,SKC,0.00,VWS V12.07,2013-05-17 11:00:00,
2013-05-17 05:30:00,52.2,40.4,29.52,WSW,254,0.0,1.0,64,0.00,,SKC,0.00,VWS V12.07,2013-05-17 11:30:00,
2013-05-17 06:00:00,51.6,40.2,29.53,WSW,254,0.0,1.0,65,0.00,,SKC,0.00,VWS V12.07,2013-05-17 12:00:00,
2013-05-17 06:30:00,51.3,40.0,29.55,SW,231,0.0,0.0,65,0.00,,SKC,0.00,VWS V12.07,2013-05-17 12:30:00,
2013-05-17 07:00:00,52.2,41.2,29.55,WSW,238,0.0,0.0,66,0.00,,SKC,0.00,VWS V12.07,2013-05-17 13:00:00,
2013-05-17 07:30:00,52.8,42.2,29.54,WSW,238,0.0,0.0,67,0.00,,SKC,0.00,VWS V12.07,2013-05-17 13:30:00,
2013-05-17 08:00:00,53.3,43.0,29.55,WSW,238,0.0,0.0,68,0.00,,SKC,0.00,VWS V12.07,2013-05-17 14:00:00,
2013-05-17 08:30:00,54.7,43.6,29.56,NW,323,0.0,1.0,66,0.00,,SKC,0.00,VWS V12.07,2013-05-17 14:30:00,
2013-05-17 09:00:00,55.1,43.6,29.57,NNE,24,0.0,1.0,65,0.00,,SKC,0.00,VWS V12.07,2013-05-17 15:00:00,
2013-05-17 09:30:00,56.3,44.3,29.57,ENE,62,0.0,1.0,64,0.00,,SKC,0.00,VWS V12.07,2013-05-17 15:30:00,
2013-05-17 10:30:00,58.4,44.6,29.61,ENE,62,0.0,1.0,60,0.00,,SKC,0.00,VWS V12.07,2013-05-17 16:30:00,
2013-05-17 11:00:00,58.1,46.0,29.63,ENE,64,0.0,3.0,64,0.00,,SKC,0.00,VWS V12.07,2013-05-17 17:00:00,
2013-05-17 11:30:00,58.9,45.9,29.62,NNE,26,0.0,0.0,62,0.00,,SKC,0.00,VWS V12.07,2013-05-17 17:30:00,
2013-05-17 12:00:00,59.6,44.8,29.64,NNE,20,0.0,1.0,58,0.00,,SKC,0.00,VWS V12.07,2013-05-17 18:00:00,
2013-05-17 12:30:00,60.7,45.4,29.65,ENE,73,0.0,1.0,57,0.00,,SKC,0.00,VWS V12.07,2013-05-17 18:30:00,
2013-05-17 13:00:00,59.8,45.5,29.66,ENE,69,0.0,5.0,59,0.00,,SKC,0.00,VWS V12.07,2013-05-17 19:00:00,
2013-05-17 13:30:00,60.2,43.0,29.66,SSE,165,0.0,2.0,53,0.00,,SKC,0.00,VWS V12.07,2013-05-17 19:30:00,
2013-05-17 14:01:00,59.3,38.5,29.67,ENE,62,0.0,5.0,46,0.00,,SKC,0.00,VWS V12.07,2013-05-17 20:01:00,
2013-05-17 14:30:00,60.5,33.4,29.65,NNE,29,0.0,0.0,36,0.00,,SKC,0.00,VWS V12.07,2013-05-17 20:30:00,
2013-05-17 15:00:00,60.5,37.9,29.66,SW,219,0.0,5.0,43,0.00,,SKC,0.00,VWS V12.07,2013-05-17 21:00:00,
2013-05-17 15:30:00,60.5,37.3,29.66,SE,130,0.0,7.0,42,0.00,,SKC,0.00,VWS V12.07,2013-05-17 21:30:00,
2013-05-17 16:00:00,58.9,36.5,29.67,ESE,111,0.0,7.0,43,0.00,,SKC,0.00,VWS V12.07,2013-05-17 22:00:00,
2013-05-17 16:30:00,57.8,39.3,29.67,ESE,117,0.0,0.0,50,0.00,,SKC,0.00,VWS V12.07,2013-05-17 22:30:00,
2013-05-17 17:00:00,59.8,32.8,29.66,WNW,288,0.0,6.0,36,0.00,,SKC,0.00,VWS V12.07,2013-05-17 23:00:00,
2013-05-17 17:30:00,59.9,32.9,29.67,West,270,0.0,1.0,36,0.00,,SKC,0.00,VWS V12.07,2013-05-17 23:30:00,
2013-05-17 18:00:00,59.8,36.7,29.66,NE,42,0.0,1.0,42,0.00,,SKC,0.00,VWS V12.07,2013-05-18 00:00:00,
2013-05-17 18:30:00,59.8,39.0,29.64,East,96,0.0,0.0,46,0.00,,SKC,0.00,VWS V12.07,2013-05-18 00:30:00,
2013-05-17 19:00:00,59.3,29.5,29.64,SSW,205,0.0,2.0,32,0.00,,SKC,0.00,VWS V12.07,2013-05-18 01:00:00,
2013-05-17 19:30:00,59.0,30.7,29.65,SW,221,0.0,6.0,34,0.00,,SKC,0.00,VWS V12.07,2013-05-18 01:30:00,
2013-05-17 20:00:00,58.6,31.0,29.65,West,269,7.0,17.0,35,0.00,,SKC,0.00,VWS V12.07,2013-05-18 02:00:00,
2013-05-17 20:30:00,58.7,29.7,29.65,WSW,246,0.0,2.0,33,0.00,,SKC,0.00,VWS V12.07,2013-05-18 02:30:00,
2013-05-17 21:00:00,51.6,42.5,29.74,ESE,111,1.0,9.0,71,0.00,,SKC,0.00,VWS V12.07,2013-05-18 03:00:00,
2013-05-17 21:30:00,50.7,42.7,29.75,ENE,70,0.0,2.0,74,0.00,,SKC,0.00,VWS V12.07,2013-05-18 03:30:00,
2013-05-17 22:00:00,49.2,44.0,29.74,ENE,70,0.0,2.0,82,0.01,,SKC,0.01,VWS V12.07,2013-05-18 04:00:00,
2013-05-17 22:30:00,48.5,44.5,29.75,ESE,119,0.0,0.0,86,0.01,,SKC,0.01,VWS V12.07,2013-05-18 04:30:00,
2013-05-17 23:00:00,48.0,44.6,29.76,ESE,119,0.0,0.0,88,0.02,,SKC,0.02,VWS V12.07,2013-05-18 05:00:00,
2013-05-17 23:30:00,47.4,44.3,29.77,ESE,119,0.0,0.0,89,0.01,,SKC,0.02,VWS V12.07,2013-05-18 05:30:00,